Flag for Hungary Weather past 2 weeks in Sopron, Hungary

Now
54 °F

Cool.


Feels Like: 54 °F
Forecast: 53 / 67 °F
Wind: 1 mph from Northwest

Location: Eisenstadt

Current Time: May 24, 2015 at 10:10:30 AM

Latest Report: May 24, 2015 at 9:00 AM


Visibility: N/A

Pressure: 30.01 "Hg

Humidity: 83%

Dew point: 49 °F

Location of SopronLocation

Historic Weather in Sopron — Graph

°F

Sopron temperature yesterday

Maximum temperature yesterday: 54 °F (at 7:00 PM)
Minimum temperature yesterday: 51 °F (at 6:00 AM)
Average temperature yesterday: 52 °F

Past Weeks' High & Low Weather Summary

 TemperatureHumidityPressure
High78 °F (May 12, 4:00 PM)95% (May 16, 12:00 AM)30.39 "Hg (May 16, 12:00 AM)
Low46 °F (May 11, 6:00 AM)29% (May 12, 12:00 PM)29.73 "Hg (May 19, 6:00 AM)
Average60 °F69%30.03 "Hg
* Reported May 9 8:00 AM — May 24 8:00 AM, Sopron, Weather by CustomWeather, © 2015

Note: Actual official high and low records may vary slightly from our data, if they occured in-between our weather recording intervals... More about our weather records

Advertising

Sopron weather history for previous 24 hours

 ConditionsComfort  
Time TempWeatherWind HumidityBarometerVisibility
8:00 AM
Sun, May 24
54 °FOvercast.5 mph85%29.98 "Hg19 mi
7:00 AM53 °FOvercast.7 mph89%29.97 "Hg19 mi
6:00 AM52 °FPartly sunny.8 mph90%29.96 "Hg7 mi
5:00 AM52 °FPassing clouds.6 mph90%29.95 "Hg7 mi
4:00 AM52 °FCool.5 mph90%29.95 "HgN/A
3:00 AM53 °FCool.5 mph90%29.95 "HgN/A
2:00 AM53 °FOvercast.6 mph89%29.95 "Hg6 mi
1:00 AM53 °FCool.5 mph89%29.96 "HgN/A
12:00 AM53 °FCool.2 mph90%29.97 "HgN/A
10:00 PM
Sat, May 23
53 °FCool.6 mph93%29.94 "HgN/A
9:00 PM54 °FCool.6 mph90%29.93 "HgN/A
8:00 PM54 °FOvercast.6 mph90%29.91 "Hg7 mi
7:00 PM54 °FLight rain. Overcast.6 mph90%29.91 "Hg6 mi
6:00 PM54 °FFog.7 mph91%29.91 "HgN/A
5:00 PM53 °FRain. Overcast.8 mph93%29.91 "Hg5 mi
4:00 PM53 °FFog.8 mph93%29.91 "HgN/A
3:00 PM53 °FFog.7 mph92%29.90 "HgN/A
2:00 PM52 °FHeavy rain. Overcast.7 mph94%29.91 "Hg2 mi
1:00 PM53 °FFog.8 mph93%29.90 "HgN/A
12:00 PM52 °FFog.8 mph93%29.91 "HgN/A
11:00 AM51 °FHeavy rain. Overcast.7 mph94%29.94 "Hg2 mi
10:00 AM51 °FFog.9 mph93%29.91 "HgN/A
Weather by CustomWeather, © 2015

See weather overviewHow to use our weather pages